Location: Kapasiwin
(53.5500°N, 114.4500°W)
Time: 03:29:48
(UTC+00:00)

ISS - Visible Passes

Search period start: 27 November 2021 00:00
Search period end: 07 December 2021 00:00
Orbit: 417 x 423 km, 51.6° (Epoch: 27 November)

Date Brightness Start Highest point End Pass type
(mag) Time Alt. Az. Time Alt. Az. Time Alt. Az.
27 Nov -2.7 00:33:55 10° SW 00:37:05 37° SSE 00:39:44 13° E visible
27 Nov -2.5 02:10:18 10° W 02:12:43 41° WSW 02:12:43 41° WSW visible
28 Nov -3.5 01:23:11 10° WSW 01:26:33 61° S 01:27:25 43° ESE visible
28 Nov -0.4 02:59:54 10° W 03:00:24 13° W 03:00:24 13° W visible
29 Nov -3.2 00:36:05 10° WSW 00:39:26 54° SSE 00:42:06 15° E visible
29 Nov -2.3 02:12:45 10° W 02:15:05 38° WSW 02:15:05 38° WSW visible
30 Nov -3.5 01:25:35 10° W 01:28:57 63° S 01:29:47 44° SE visible
30 Nov -0.3 03:02:24 10° W 03:02:46 12° W 03:02:46 12° W visible
01 Dec -3.4 00:38:24 10° W 00:41:47 64° S 00:44:30 15° E visible
01 Dec -2.1 02:15:10 10° W 02:17:29 33° WSW 02:17:29 33° WSW visible
02 Dec -3.1 01:27:56 10° W 01:31:16 51° SSW 01:32:15 36° SE visible
02 Dec -0.2 03:05:06 10° W 03:05:14 11° W 03:05:14 11° W visible
03 Dec -3.2 00:40:43 10° W 00:44:04 58° S 00:47:04 12° ESE visible
03 Dec -1.7 02:17:39 10° W 02:20:03 25° SW 02:20:03 25° SW visible
04 Dec -2.2 01:30:19 10° W 01:33:25 33° SSW 01:34:58 22° SSE visible
05 Dec -2.6 00:43:00 10° W 00:46:15 42° SSW 00:49:28 10° SE visible
05 Dec -1.0 02:20:35 10° WSW 02:22:27 14° SW 02:23:01 14° SSW visible
06 Dec -1.2 01:32:52 10° W 01:35:22 19° SSW 01:37:52 10° SSE visible
